Location: Im Fang
(46.6019°N, 7.2397°E)
Time: 04:06:31
(UTC+00:00)

YAOGAN 6 - Pass Details

Date: 08 December 2019
Orbit: 466 x 504 km, 97.0° (Epoch: 19 January)

Event Time Altitude Azimuth Distance (km) Brightness Sun altitude
Rises 06:14:34 0° 16° (NNE) 2,599 6.2 -7.9°
Reaches altitude 10° 06:16:41 10° 22° (NNE) 1,715 5.3 -7.6°
Maximum altitude 06:20:18 51° 99° (E) 642 3.7 -7.0°
Drops below altitude 10° 06:23:54 10° 176° (S) 1,711 5.8 -6.5°
Sets 06:26:01 0° 182° (S) 2,591 6.6 -6.2°
